星链-30374 (STARLINK-30374 )

导读 | 星芒AI

STARLINK-30374 是由 SpaceX 发射的星链计划中的一颗低轨卫星,属于第 11 批星链组网卫星(Batch 11)。该卫星于 2023 年 9 月 21 日由猎鹰 9 号火箭从美国卡纳维拉尔角发射升空。作为星链网络的一部分,STARLINK-30374 主要用于提供全球范围内的高速互联网服务,尤其在偏远和网络基础设施薄弱的地区。该卫星运行在约 550 公里的轨道高度,具备自动避障和星间通信能力,以提升网络稳定性和覆盖效率。

基本信息
目录编号:
57809
目录名称:
STARLINK-30374
国际标识:
2023-138B
轨道中心:
EARTH
卫星名称:
星链-30374
卫星全名:
星链-30374 (STARLINK-30374 )
卫星状态:
在轨 (已飞行782 天)
发射日期:
2023-09-09 UTC
国别 :
美国 (US)
星等 :
--
轨道信息
数据来源 国际轨道数据 AOE轨道数据
星历时间 2025-10-30T09:43:21+0800
20小时前
查看轨道信息
2025-10-29T11:00:00+0800
1天前
查看轨道信息
半长轴 6937.269km 6937.215km
偏心率 0.0001892 0.0001089
轨道倾角 43.004° 43.001°
近地点辐角 277.800° 260.605°
升交点赤经 226.161° 231.307°
平近点角 82.263° 12.542°
近地点 557.821km 558.324km
远地点 560.447km 559.836km
周期 95.839分钟 95.838分钟
每日圈数 15.025192 15.025365
详细信息
固有亮度:
5
最大亮度:
0.3
卫星平台:
Starlink v2.0 mini
覆盖范围:
全球
运营商:
太空探索技术公司
运营商所在国:
美国
制造商(研发单位):
太空探索技术公司
制造商所在国:
美国
使用方式:
暂无
卫星简介
星链(Starlink)计划是由太空探索技术公司(SpaceX)提出的一个巨型低轨卫星互联网星座项目,计划在2019年至2024年间在太空搭建由约1.2万颗卫星组成的“星链”网络,其中1584颗将部署在地球上空550千米处的近地轨道,并从2020年开始工作。该卫星仍在工作。
2D轨道图
3D轨道图
轨道高度分析图
轨道倾角分析图
轨道综合分析图
查看轨道综合分析图